This demonstration page uses our WeatherBlox Daily Observations layout. Learn more.

Left ArrowRight Arrow

31.31129, -92.44514

Hourly Observations for October 6, 2022

Temp ( °F °C ) Dew Point ( °F °C ) Humidity (%) Winds ( mph kmh ) Pressure ( in mb ) Visibility ( mi km ) Precip ( " mm )
12:53 am 00:53 Clear 58 14.4 49 9.4 72 72 Calm 30.09 1019 10 16 0.00 0.00
1:53 am 01:53 Clear 57 13.9 51 10.6 80 80 Calm 30.09 1019 10 16 0.00 0.00
2:53 am 02:53 Clear 57 13.9 54 12.2 89 89 Calm 30.10 1019 10 16 0.00 0.00
3:53 am 03:53 Clear 56 13.3 52 11.1 87 87 Calm 30.09 1019 9 14 0.00 0.00
4:53 am 04:53 Clear 56 13.3 51 10.6 84 84 Calm 30.09 1019 9 14 0.00 0.00
5:53 am 05:53 Clear 52 11.1 46 7.8 80 80 NNW 3 6 30.11 1020 10 16 0.00 0.00
6:53 am 06:53 Clear 54 12.2 50 10 86 86 Calm 30.13 1020 8 13 0.00 0.00
7:53 am 07:53 Sunny with Mist and Fog 55 12.8 52 11.1 89 89 Calm 30.14 1021 6 10 0.00 0.00
8:53 am 08:53 Sunny 63 17.2 54 12.2 72 72 Calm 30.15 1021 9 14 0.00 0.00
9:53 am 09:53 Sunny 73 22.8 52 11.1 48 48 Calm 30.16 1021 10 16 0.00 0.00
10:53 am 10:53 Sunny 80 26.7 50 10 35 35 VRB 5 7 30.16 1021 10 16 0.00 0.00
11:53 am 11:53 Sunny 83 28.3 47 8.3 28 28 Calm 30.15 1021 10 16 0.00 0.00
12:53 pm 12:53 Sunny 86 30 49 9.4 28 28 VRB 5 7 30.13 1020 10 16 0.00 0.00
1:53 pm 13:53 Sunny 88 31.1 49 9.4 26 26 NE 8 13 30.10 1019 10 16 0.00 0.00
2:53 pm 14:53 Sunny 89 31.7 49 9.4 25 25 E 8 13 30.07 1018 10 16 0.00 0.00
3:53 pm 15:53 Sunny 89 31.7 49 9.4 25 25 E 5 7 30.07 1018 10 16 0.00 0.00
4:53 pm 16:53 Sunny 88 31.1 51 10.6 28 28 ESE 5 7 30.06 1018 10 16 0.00 0.00
5:53 pm 17:53 Sunny 86 30 52 11.1 31 31 Calm 30.06 1018 10 16 0.00 0.00
6:53 pm 18:53 Clear 78 25.6 58 14.4 50 50 Calm 30.08 1019 10 16 0.00 0.00
7:53 pm 19:53 Clear 70 21.1 55 12.8 59 59 Calm 30.09 1019 8 13 0.00 0.00
8:53 pm 20:53 Clear 71 21.7 57 13.9 61 61 Calm 30.11 1020 10 16 0.00 0.00
9:53 pm 21:53 Clear 63 17.2 58 14.4 84 84 Calm 30.11 1020 10 16 0.00 0.00
10:53 pm 22:53 Clear 66 18.9 56 13.3 70 70 Calm 30.13 1020 10 16 0.00 0.00
11:53 pm 23:53 Clear 63 17.2 52 11.1 67 67 Calm 30.13 1020 10 16 0.00 0.00

Powered by AerisWeather